Regional Weather Roundup
Issued by NWS

Home | Current Version | Previous Version | Graphics & Text | Print | Product List | Glossary On
Versions: 1 2 3 4 5 6 7 8 9 10 11 12 13 14 15 16 17 18 19 20 21 22 23 24 25 26 27 28 29 30 31 32 33 34 35 36 37 38 39 40 41 42 43 44 45 46 47 48 49 50
598
ASUS44 KJAN 211103
RWRMS

MISSISSIPPI HOURLY WEATHER ROUNDUP
NATIONAL WEATHER SERVICE JACKSON MS
600 AM CDT TUE OCT 21 2014

NOTE: "FAIR: INDICATES FEW OR NO CLOUDS BELOW 12,000 FEET WITH NO
SIGNIFICANT WEATHER AND/OR OBSTRUCTIONS TO VISIBILITY.

MSZ001>002-007>008-010>013-018>021-025>028-034>036-211200-
NORTHWEST MISSISSIPPI

CITY           SKY/WX    TMP DP  RH WIND       PRES   REMARKS
CLARKSDALE     FAIR      54  54 100 CALM      30.06S
CLEVELAND      FAIR      53  53 100 CALM      30.05S
GREENWOOD      CLEAR     50  47  89 CALM      30.06R
GREENVILLE     PTCLDY    53  51  93 CALM      30.05R FOG
GRENADA          N/A    N/A N/A N/A MISG        N/A
OLIVE BRANCH   CLEAR     52  52 100 CALM      30.05S
OXFORD         FAIR      46  45  93 CALM      30.07R
TUNICA         FOG       50  50 100 S3        30.06R VSB 1/2
$$

MSZ003>006-009-014>017-022>024-029>033-037>039-211200-
NORTHEAST MISSISSIPPI

CITY           SKY/WX    TMP DP  RH WIND       PRES   REMARKS
COLUMBUS AFB   CLEAR     46  46  99 CALM      30.05R
CORINTH        FAIR      46  45  93 CALM      30.04R
GOLDN TRIANGLE CLEAR     48  45  87 CALM      30.04S
STARKVILLE     FAIR      45  45 100 CALM      30.05R
TUPELO         CLEAR     50  47  89 CALM      30.04R
$$

MSZ040-058-211200-
CENTRAL MISSISSIPPI

CITY           SKY/WX    TMP DP  RH WIND       PRES   REMARKS
JACKSON INTL   CLEAR     49  48  97 CALM      30.06R
JACKSON HAWKNS CLEAR     52  48  86 CALM      30.06R
MERIDIAN KEY   NOT AVBL
MERIDIAN NAS   CLEAR     49  47  93 CALM      30.06R
RAYMOND        FAIR      48  43  81 MISG      30.06R HAZE
VICKSBURG      CLEAR     48  47  96 CALM      30.07R
$$

MSZ059>079-211200-
SOUTH MISSISSIPPI

CITY           SKY/WX    TMP DP  RH WIND       PRES   REMARKS
BROOKHAVEN     FAIR      48  48 100 CALM      30.07R
COLUMBIA         N/A    N/A N/A N/A MISG        N/A
HATTIESBURG    CLEAR     50  47  89 CALM      30.06R
MCCOMB         CLEAR     53  49  86 CALM      30.05R
NATCHEZ        CLEAR     52  48  87 CALM      30.06S
PINE BELT      CLEAR     48  45  87 CALM      30.06R
$$

MSZ080>082-211200-
COASTAL MISSISSIPPI

CITY           SKY/WX    TMP DP  RH WIND       PRES   REMARKS
BILOXI         CLEAR     57  51  80 N5        30.03R
PASCAGOULA     CLEAR     48  47  96 CALM      30.03R
GULFPORT       CLEAR     52  50  93 N3        30.02R
$$



USA.gov is the U.S. government's official web portal to all federal, state and local government web resources and services.